UAE41M LFLL-OMDB

Flight info

Callsign UAE41M
Flight time 6h 0m
Altitude 22000
Route RISOR T47 GEMLA/N0462F230 DCT VANAS DCT MEDAM DCT NITAM DCT MOGBO/N0495F330 DCT ASTIG DCT RIPDU/N0482F390 DCT TODNO DCT NIKOL DCT OKLAX DCT VRANA DCT RUDAR DCT NISVA Q29 ARTAT UP975 ERGUN UL124 ASVOD/N0485F410 UL124 EVSAS UM688 RATVO M688 SIDAD P975 SESRU M677 VUTEB
Aircraft A359/H-SDE2E3GHIJ3J4J5LM1ORWXY/LB1D1

Departure

Time 2026-04-23 13:51
Airport Lyon Saint-Exupéry Airport (LFLL)

Arrival

Time 2026-04-23 19:51
Airport Dubai International Airport (OMDB)
Time Latitude Longitude Altitude Speed Heading
2026-04-23 13:22 45.71858 5.08098 803 ft 0 kts 309°
2026-04-23 13:36 45.71861 5.08093 802 ft 4 kts 309°
2026-04-23 13:36 45.71873 5.08072 803 ft 4 kts 309°
2026-04-23 13:37 45.71875 5.08069 804 ft 0 kts 309°
2026-04-23 13:37 45.71865 5.08084 804 ft 0 kts 308°
2026-04-23 13:42 45.71863 5.08088 803 ft 3 kts 308°
2026-04-23 13:42 45.71847 5.08120 803 ft 4 kts 302°
2026-04-23 13:42 45.71834 5.08150 803 ft 4 kts 314°
2026-04-23 13:43 45.71813 5.08165 803 ft 4 kts
2026-04-23 13:43 45.71789 5.08156 803 ft 3 kts 21°
2026-04-23 13:43 45.71788 5.08155 803 ft 0 kts 21°
2026-04-23 13:45 45.71791 5.08157 803 ft 1 kts 21°
2026-04-23 13:45 45.71813 5.08169 803 ft 6 kts 21°
2026-04-23 13:46 45.71872 5.08195 803 ft 11 kts 13°
2026-04-23 13:46 45.71949 5.08228 803 ft 11 kts 31°
2026-04-23 13:46 45.71966 5.08320 805 ft 10 kts 104°
2026-04-23 13:46 45.71946 5.08425 807 ft 11 kts 111°
2026-04-23 13:47 45.71883 5.08469 808 ft 11 kts 175°
2026-04-23 13:47 45.71805 5.08480 808 ft 12 kts 175°
2026-04-23 13:47 45.71712 5.08491 808 ft 15 kts 175°
2026-04-23 13:47 45.71600 5.08505 809 ft 17 kts 175°
2026-04-23 13:48 45.71473 5.08520 812 ft 18 kts 175°
2026-04-23 13:48 45.71355 5.08534 817 ft 16 kts 175°
2026-04-23 13:48 45.71238 5.08548 819 ft 18 kts 175°
2026-04-23 13:48 45.71146 5.08580 818 ft 11 kts 146°
2026-04-23 13:49 45.71112 5.08666 825 ft 10 kts 106°
2026-04-23 13:49 45.71093 5.08771 826 ft 12 kts 104°
2026-04-23 13:49 45.71077 5.08900 820 ft 13 kts 90°
2026-04-23 13:49 45.71103 5.09014 825 ft 13 kts 33°
2026-04-23 13:50 45.71192 5.09020 825 ft 14 kts 355°
2026-04-23 13:50 45.71491 5.08983 818 ft 76 kts 355°
2026-04-23 13:50 45.72221 5.08894 809 ft 133 kts 355°
2026-04-23 13:50 45.73312 5.08767 897 ft 172 kts 355°
2026-04-23 13:51 45.74501 5.08622 1570 ft 170 kts 355°
2026-04-23 13:51 45.75698 5.08733 2129 ft 181 kts 17°
2026-04-23 13:51 45.76804 5.09742 2403 ft 202 kts 53°
2026-04-23 13:51 45.77283 5.11663 2692 ft 221 kts 89°
2026-04-23 13:52 45.76765 5.13793 2997 ft 239 kts 129°
2026-04-23 13:52 45.75570 5.15467 3644 ft 241 kts 139°
2026-04-23 13:52 45.74298 5.17030 4431 ft 240 kts 139°
2026-04-23 13:52 45.73041 5.18590 5239 ft 239 kts 138°
2026-04-23 13:53 45.71813 5.20219 5920 ft 242 kts 131°
2026-04-23 13:53 45.70744 5.22134 6450 ft 253 kts 126°
2026-04-23 13:53 45.69702 5.24236 6985 ft 262 kts 124°
2026-04-23 13:53 45.68649 5.26394 7654 ft 266 kts 124°
2026-04-23 13:54 45.67581 5.28576 8408 ft 269 kts 124°
2026-04-23 13:54 45.66513 5.30752 9202 ft 270 kts 124°
2026-04-23 13:54 45.65427 5.32958 9989 ft 272 kts 124°
2026-04-23 13:54 45.64328 5.35187 10653 ft 277 kts 124°
2026-04-23 13:55 45.63201 5.37470 11274 ft 284 kts 124°
2026-04-23 13:55 45.62031 5.39848 11637 ft 301 kts 124°
2026-04-23 13:55 45.60784 5.42374 11940 ft 320 kts 124°
2026-04-23 13:55 45.59460 5.45048 12215 ft 338 kts 124°
2026-04-23 13:56 45.58068 5.47859 12499 ft 353 kts 124°
2026-04-23 13:56 45.56650 5.50718 13030 ft 360 kts 124°
2026-04-23 13:56 45.55191 5.53654 13682 ft 364 kts 124°
2026-04-23 13:56 45.53721 5.56612 14297 ft 367 kts 124°
2026-04-23 13:57 45.52295 5.59663 14880 ft 370 kts 119°
2026-04-23 13:57 45.51328 5.63081 15480 ft 373 kts 104°
2026-04-23 13:57 45.51093 5.66771 16059 ft 378 kts 88°
2026-04-23 13:57 45.51367 5.70521 16634 ft 382 kts 84°
2026-04-23 13:58 45.51738 5.74290 17212 ft 386 kts 84°
2026-04-23 13:58 45.52114 5.78096 17742 ft 390 kts 84°
2026-04-23 13:58 45.52478 5.81885 18278 ft 392 kts 84°
2026-04-23 13:58 45.52832 5.85773 18781 ft 396 kts 84°
2026-04-23 13:59 45.53198 5.89690 19297 ft 399 kts 84°
2026-04-23 13:59 45.53568 5.93631 19830 ft 402 kts 84°
2026-04-23 13:59 45.53937 5.97589 20409 ft 404 kts 84°
2026-04-23 13:59 45.54309 6.01579 20966 ft 407 kts 84°
2026-04-23 14:00 45.54556 6.04248 21258 ft 410 kts 84°
2026-04-23 14:00 45.55052 6.09621 22039 ft 412 kts 84°
2026-04-23 14:00 45.55425 6.13704 22616 ft 416 kts 84°
2026-04-23 14:00 45.55795 6.17807 23091 ft 418 kts 84°
2026-04-23 14:01 45.56165 6.21944 23231 ft 426 kts 84°
2026-04-23 14:01 45.56542 6.26215 23216 ft 439 kts 83°
2026-04-23 14:01 45.56793 6.30557 23212 ft 439 kts 90°
2026-04-23 14:01 45.56548 6.34882 23218 ft 437 kts 101°
2026-04-23 14:02 45.55766 6.39069 23217 ft 437 kts 108°
2026-04-23 14:02 45.54760 6.43166 23218 ft 438 kts 110°
2026-04-23 14:02 45.53648 6.47203 23220 ft 438 kts 111°
2026-04-23 14:02 45.52498 6.51182 23218 ft 438 kts 112°
2026-04-23 14:03 45.51324 6.55189 23226 ft 438 kts 112°
2026-04-23 14:03 45.50150 6.59209 23212 ft 438 kts 112°
2026-04-23 14:03 45.48990 6.63220 23226 ft 438 kts 111°
2026-04-23 14:03 45.47836 6.67240 23197 ft 439 kts 111°
2026-04-23 14:04 45.46537 6.71178 23208 ft 440 kts 119°
2026-04-23 14:04 45.44809 6.74708 23228 ft 441 kts 129°
2026-04-23 14:04 45.42594 6.77744 23229 ft 442 kts 139°
2026-04-23 14:04 45.40180 6.80458 23199 ft 443 kts 142°
2026-04-23 14:05 45.37679 6.83025 23233 ft 443 kts 143°
2026-04-23 14:05 45.35138 6.85524 23215 ft 444 kts 144°
2026-04-23 14:05 45.32589 6.88000 23231 ft 444 kts 144°
2026-04-23 14:05 45.30040 6.90479 23236 ft 444 kts 144°
2026-04-23 14:06 45.27514 6.93011 23234 ft 443 kts 141°
2026-04-23 14:06 45.25176 6.95847 23240 ft 442 kts 136°
2026-04-23 14:06 45.22912 6.98808 23227 ft 443 kts 135°
2026-04-23 14:06 45.20683 7.01833 23252 ft 443 kts 134°
2026-04-23 14:07 45.18498 7.04852 23257 ft 443 kts 134°
2026-04-23 14:07 45.14095 7.10959 23252 ft 443 kts 134°
2026-04-23 14:07 45.11893 7.14034 23254 ft 443 kts 132°
2026-04-23 14:08 45.09920 7.17370 23275 ft 442 kts 126°
2026-04-23 14:08 45.08683 7.19673 23255 ft 441 kts 125°
2026-04-23 14:08 45.06880 7.23179 23254 ft 441 kts 124°
2026-04-23 14:08 45.05108 7.26729 23268 ft 441 kts 124°
2026-04-23 14:09 45.02781 7.31451 23259 ft 441 kts 123°
2026-04-23 14:09 45.01061 7.35040 23254 ft 441 kts 121°
2026-04-23 14:09 45.00042 7.37595 23414 ft 439 kts 116°
2026-04-23 14:09 44.98877 7.41549 24138 ft 432 kts 108°
2026-04-23 14:10 44.98147 7.45591 24852 ft 429 kts 99°
2026-04-23 14:10 44.97758 7.49764 25427 ft 429 kts 96°
2026-04-23 14:10 44.97507 7.53966 25928 ft 431 kts 94°
2026-04-23 14:10 44.97327 7.58202 26418 ft 433 kts 93°
2026-04-23 14:11 44.97173 7.62465 26900 ft 435 kts 93°
2026-04-23 14:11 44.97019 7.66741 27388 ft 437 kts 93°
2026-04-23 14:11 44.96856 7.71042 27848 ft 440 kts 93°
2026-04-23 14:11 44.96680 7.75361 28300 ft 442 kts 93°
2026-04-23 14:12 44.96494 7.79714 28734 ft 444 kts 94°
2026-04-23 14:12 44.96300 7.84082 29195 ft 446 kts 94°
2026-04-23 14:12 44.96103 7.88407 29611 ft 449 kts 94°
2026-04-23 14:12 44.95901 7.92814 30014 ft 451 kts 94°
2026-04-23 14:13 44.95695 7.97248 30378 ft 453 kts 94°
2026-04-23 14:13 44.95486 8.01708 30670 ft 456 kts 94°
2026-04-23 14:13 44.95276 8.06188 30981 ft 457 kts 94°
2026-04-23 14:13 44.95064 8.10671 31317 ft 458 kts 94°
2026-04-23 14:14 44.94849 8.15169 31591 ft 460 kts 94°
2026-04-23 14:14 44.94632 8.19684 31895 ft 461 kts 94°
2026-04-23 14:14 44.94413 8.24191 32301 ft 459 kts 94°
2026-04-23 14:14 44.94120 8.28671 32695 ft 458 kts 98°
2026-04-23 14:15 44.93605 8.33102 33058 ft 458 kts 99°
2026-04-23 14:15 44.93043 8.37494 33202 ft 461 kts 100°
2026-04-23 14:15 44.91832 8.46374 33209 ft 460 kts 100°
2026-04-23 14:16 44.90594 8.55237 33208 ft 460 kts 100°
2026-04-23 14:16 44.89364 8.64039 33209 ft 460 kts 100°
2026-04-23 14:17 44.88128 8.72888 33211 ft 460 kts 100°
2026-04-23 14:17 44.86883 8.81756 33214 ft 460 kts 99°
2026-04-23 14:18 44.85635 8.90601 33209 ft 460 kts 100°
2026-04-23 14:18 44.84379 8.99449 33208 ft 460 kts 100°
2026-04-23 14:19 44.83117 9.08287 33209 ft 460 kts 100°
2026-04-23 14:19 44.81846 9.17131 33206 ft 460 kts 99°
2026-04-23 14:20 44.80577 9.25912 33196 ft 461 kts 99°
2026-04-23 14:20 44.79291 9.34756 33194 ft 461 kts 99°
2026-04-23 14:21 44.77999 9.43592 33187 ft 461 kts 100°
2026-04-23 14:21 44.76697 9.52448 33192 ft 461 kts 99°
2026-04-23 14:22 44.75387 9.61308 33181 ft 463 kts 99°
2026-04-23 14:22 44.74076 9.70129 33188 ft 463 kts 100°
2026-04-23 14:23 44.72749 9.79001 33193 ft 463 kts 100°
2026-04-23 14:23 44.71416 9.87859 33189 ft 463 kts 100°
2026-04-23 14:24 44.70085 9.96662 33212 ft 464 kts 100°
2026-04-23 14:24 44.68734 10.05548 33221 ft 464 kts 100°
2026-04-23 14:25 44.67377 10.14425 33212 ft 464 kts 100°
2026-04-23 14:25 44.66013 10.23293 33218 ft 464 kts 100°
2026-04-23 14:26 44.64638 10.32184 33236 ft 465 kts 100°
2026-04-23 14:26 44.63256 10.41073 33236 ft 466 kts 100°
2026-04-23 14:27 44.62573 10.45455 33385 ft 466 kts 100°
2026-04-23 14:27 44.61877 10.49892 33781 ft 464 kts 100°
2026-04-23 14:27 44.61177 10.54296 34221 ft 462 kts 100°
2026-04-23 14:27 44.60470 10.58688 34552 ft 461 kts 100°
2026-04-23 14:28 44.59762 10.63072 34839 ft 461 kts 100°
2026-04-23 14:28 44.59049 10.67471 35058 ft 462 kts 100°
2026-04-23 14:28 44.58337 10.71862 35345 ft 462 kts 100°
2026-04-23 14:28 44.57623 10.76260 35647 ft 461 kts 100°
2026-04-23 14:29 44.56910 10.80638 35932 ft 460 kts 100°
2026-04-23 14:29 44.56197 10.85012 36190 ft 460 kts 100°
2026-04-23 14:29 44.55483 10.89382 36443 ft 460 kts 100°
2026-04-23 14:29 44.54768 10.93749 36696 ft 459 kts 100°
2026-04-23 14:30 44.54051 10.98116 36929 ft 459 kts 100°
2026-04-23 14:30 44.53334 11.02471 37160 ft 459 kts 100°
2026-04-23 14:30 44.52625 11.06768 37383 ft 458 kts 100°
2026-04-23 14:30 44.51995 11.11156 37586 ft 457 kts 97°
2026-04-23 14:31 44.51521 11.15552 37814 ft 456 kts 95°
2026-04-23 14:31 44.51112 11.19958 38014 ft 456 kts 95°
2026-04-23 14:31 44.50712 11.24360 38215 ft 455 kts 95°
2026-04-23 14:31 44.50299 11.28756 38348 ft 455 kts 95°
2026-04-23 14:32 44.49864 11.33152 38563 ft 455 kts 96°
2026-04-23 14:32 44.49410 11.37546 38709 ft 456 kts 96°
2026-04-23 14:32 44.48944 11.41941 38874 ft 456 kts 96°
2026-04-23 14:32 44.48477 11.46280 38984 ft 456 kts 96°
2026-04-23 14:33 44.47999 11.50671 39087 ft 457 kts 96°
2026-04-23 14:33 44.47519 11.55077 39178 ft 458 kts 96°
2026-04-23 14:33 44.46551 11.63919 39217 ft 459 kts 96°
2026-04-23 14:34 44.45575 11.72775 39232 ft 459 kts 96°
2026-04-23 14:34 44.44602 11.81557 39233 ft 459 kts 96°
2026-04-23 14:35 44.43617 11.90382 39236 ft 459 kts 96°
2026-04-23 14:35 44.42626 11.99202 39225 ft 459 kts 96°
2026-04-23 14:36 44.41627 12.08032 39230 ft 459 kts 96°
2026-04-23 14:36 44.40622 12.16843 39227 ft 458 kts 96°
2026-04-23 14:37 44.39611 12.25644 39224 ft 458 kts 96°
2026-04-23 14:37 44.38601 12.34382 39220 ft 458 kts 96°
2026-04-23 14:38 44.37577 12.43176 39231 ft 458 kts 96°
2026-04-23 14:38 44.36547 12.51966 39217 ft 458 kts 96°
2026-04-23 14:39 44.35508 12.60770 39214 ft 458 kts 96°
2026-04-23 14:39 44.34464 12.69552 39210 ft 458 kts 96°
2026-04-23 14:40 44.33411 12.78345 39207 ft 458 kts 96°
2026-04-23 14:40 44.32358 12.87085 39207 ft 459 kts 96°
2026-04-23 14:41 44.31291 12.95887 39206 ft 459 kts 96°
2026-04-23 14:41 44.30218 13.04675 39205 ft 459 kts 96°
2026-04-23 14:42 44.29138 13.13462 39198 ft 459 kts 96°
2026-04-23 14:42 44.28051 13.22249 39198 ft 460 kts 96°
2026-04-23 14:43 44.26961 13.31008 39195 ft 460 kts 96°
2026-04-23 14:43 44.25857 13.39813 39192 ft 460 kts 97°
2026-04-23 14:44 44.24746 13.48621 39192 ft 460 kts 97°
2026-04-23 14:44 44.23628 13.57424 39194 ft 461 kts 97°
2026-04-23 14:45 44.22503 13.66232 39189 ft 462 kts 97°
2026-04-23 14:45 44.21349 13.74989 39189 ft 462 kts 97°
2026-04-23 14:46 44.20100 13.83785 39184 ft 462 kts 98°
2026-04-23 14:46 44.18840 13.92571 39184 ft 462 kts 98°
2026-04-23 14:47 44.17582 14.01378 39183 ft 463 kts 97°
2026-04-23 14:47 44.16326 14.10172 39178 ft 463 kts 97°
2026-04-23 14:48 44.15062 14.18983 39180 ft 463 kts 98°
2026-04-23 14:48 44.13801 14.27717 39174 ft 463 kts 98°
2026-04-23 14:49 44.12524 14.36506 39170 ft 463 kts 98°
2026-04-23 14:49 44.11242 14.45287 39168 ft 463 kts 98°
2026-04-23 14:50 44.09951 14.54074 39165 ft 463 kts 98°
2026-04-23 14:50 44.08656 14.62844 39165 ft 463 kts 98°
2026-04-23 14:51 44.07353 14.71611 39160 ft 463 kts 98°
2026-04-23 14:51 44.06043 14.80381 39160 ft 463 kts 98°
2026-04-23 14:52 44.04734 14.89094 39159 ft 463 kts 98°
2026-04-23 14:52 44.03411 14.97853 39160 ft 463 kts 98°
2026-04-23 14:53 44.02079 15.06620 39142 ft 464 kts 98°
2026-04-23 14:53 44.00739 15.15398 39137 ft 464 kts 98°
2026-04-23 14:54 43.99391 15.24173 39133 ft 464 kts 98°
2026-04-23 14:54 43.98040 15.32930 39138 ft 464 kts 98°
2026-04-23 14:55 43.96682 15.41675 39133 ft 463 kts 98°
2026-04-23 14:55 43.95324 15.50375 39129 ft 463 kts 98°
2026-04-23 14:56 43.93954 15.59109 39128 ft 463 kts 98°
2026-04-23 14:56 43.92799 15.66436 39122 ft 464 kts 98°
2026-04-23 14:57 43.91419 15.75155 39117 ft 466 kts 98°
2026-04-23 14:57 43.90018 15.83951 39105 ft 466 kts 99°
2026-04-23 14:58 43.88621 15.92677 39107 ft 466 kts 99°
2026-04-23 14:58 43.87212 16.01448 39112 ft 466 kts 99°
2026-04-23 14:59 43.86329 16.10307 39091 ft 463 kts 92°
2026-04-23 14:59 43.85678 16.19196 39091 ft 463 kts 92°
2026-04-23 15:00 43.85060 16.28073 39084 ft 463 kts 92°
2026-04-23 15:00 43.84432 16.36965 39088 ft 463 kts 92°
2026-04-23 15:01 43.83788 16.45848 39079 ft 463 kts 92°
2026-04-23 15:01 43.83134 16.54739 39077 ft 464 kts 92°
2026-04-23 15:02 43.82475 16.63578 39078 ft 464 kts 92°
2026-04-23 15:02 43.81806 16.72473 39079 ft 464 kts 92°
2026-04-23 15:03 43.81131 16.81347 39089 ft 463 kts 92°
2026-04-23 15:03 43.80451 16.90205 39086 ft 463 kts 93°
2026-04-23 15:04 43.79767 16.99030 39092 ft 463 kts 93°
2026-04-23 15:04 43.79072 17.07891 39094 ft 463 kts 93°
2026-04-23 15:05 43.78372 17.16743 39098 ft 463 kts 93°
2026-04-23 15:05 43.77664 17.25602 39092 ft 463 kts 93°
2026-04-23 15:06 43.76953 17.34403 39089 ft 463 kts 93°
2026-04-23 15:06 43.76231 17.43257 39089 ft 463 kts 93°
2026-04-23 15:07 43.75503 17.52104 39085 ft 462 kts 93°
2026-04-23 15:07 43.74694 17.60939 39084 ft 463 kts 95°
2026-04-23 15:08 43.73713 17.69754 39076 ft 463 kts 95°
2026-04-23 15:09 43.72239 17.82906 39100 ft 463 kts 95°
2026-04-23 15:09 43.71273 17.91709 39082 ft 463 kts 95°
2026-04-23 15:10 43.70307 18.00508 39079 ft 463 kts 95°
2026-04-23 15:10 43.69336 18.09301 39078 ft 463 kts 95°
2026-04-23 15:11 43.68357 18.18089 39075 ft 463 kts 95°
2026-04-23 15:11 43.67368 18.26886 39078 ft 463 kts 95°
2026-04-23 15:12 43.66381 18.35617 39080 ft 463 kts 95°
2026-04-23 15:12 43.65379 18.44418 39078 ft 463 kts 95°
2026-04-23 15:13 43.64348 18.53218 39096 ft 464 kts 96°
2026-04-23 15:13 43.63139 18.61986 39081 ft 465 kts 97°
2026-04-23 15:14 43.61884 18.70735 39076 ft 465 kts 97°
2026-04-23 15:14 43.60653 18.79435 39077 ft 465 kts 97°
2026-04-23 15:15 43.59428 18.88186 39069 ft 464 kts 97°
2026-04-23 15:15 43.58198 18.96943 39068 ft 465 kts 97°
2026-04-23 15:16 43.56962 19.05698 39067 ft 465 kts 97°
2026-04-23 15:16 43.55717 19.14451 39066 ft 465 kts 97°
2026-04-23 15:17 43.54465 19.23207 39071 ft 465 kts 97°
2026-04-23 15:17 43.53215 19.31898 39051 ft 465 kts 97°
2026-04-23 15:18 43.51948 19.40660 39061 ft 466 kts 97°
2026-04-23 15:18 43.50672 19.49425 39055 ft 467 kts 97°
2026-04-23 15:19 43.49384 19.58225 39064 ft 467 kts 97°
2026-04-23 15:19 43.48092 19.67005 39055 ft 468 kts 97°
2026-04-23 15:20 43.46797 19.75757 39057 ft 469 kts 97°
2026-04-23 15:20 43.45486 19.84567 39053 ft 469 kts 97°
2026-04-23 15:21 43.44170 19.93360 39061 ft 469 kts 97°
2026-04-23 15:21 43.42846 20.02155 39050 ft 469 kts 97°
2026-04-23 15:22 43.41516 20.10951 39046 ft 470 kts 97°
2026-04-23 15:22 43.40183 20.19709 39050 ft 470 kts 97°
2026-04-23 15:23 43.38837 20.28503 39063 ft 470 kts 97°
2026-04-23 15:23 43.37485 20.37301 39042 ft 471 kts 98°
2026-04-23 15:24 43.36125 20.46098 39046 ft 471 kts 98°
2026-04-23 15:24 43.34756 20.54896 39046 ft 471 kts 98°
2026-04-23 15:25 43.33380 20.63698 39049 ft 471 kts 98°
2026-04-23 15:25 43.32007 20.72441 39043 ft 472 kts 98°
2026-04-23 15:26 43.30614 20.81260 39038 ft 472 kts 98°
2026-04-23 15:26 43.29212 20.90077 39039 ft 472 kts 98°
2026-04-23 15:27 43.27805 20.98884 39044 ft 472 kts 98°
2026-04-23 15:27 43.26392 21.07692 39035 ft 473 kts 98°
2026-04-23 15:28 43.24966 21.16530 39035 ft 473 kts 98°
2026-04-23 15:28 43.23538 21.25338 39034 ft 473 kts 98°
2026-04-23 15:29 43.22110 21.34098 39037 ft 473 kts 98°
2026-04-23 15:29 43.20665 21.42911 39031 ft 474 kts 98°
2026-04-23 15:30 43.19210 21.51746 39030 ft 474 kts 98°
2026-04-23 15:30 43.17751 21.60554 39024 ft 474 kts 98°
2026-04-23 15:31 43.16293 21.69318 39021 ft 474 kts 98°
2026-04-23 15:31 43.14819 21.78130 39022 ft 474 kts 98°
2026-04-23 15:32 43.13339 21.86931 39022 ft 474 kts 99°
2026-04-23 15:32 43.11851 21.95738 39022 ft 474 kts 99°
2026-04-23 15:33 43.10365 22.04494 39022 ft 474 kts 99°
2026-04-23 15:33 43.08863 22.13290 39021 ft 474 kts 99°
2026-04-23 15:34 43.07354 22.22087 39021 ft 475 kts 99°
2026-04-23 15:34 43.05839 22.30878 39020 ft 475 kts 99°
2026-04-23 15:35 43.04316 22.39669 39022 ft 475 kts 99°
2026-04-23 15:35 43.02795 22.48411 39019 ft 475 kts 99°
2026-04-23 15:36 43.01256 22.57211 39015 ft 475 kts 99°
2026-04-23 15:36 42.99710 22.66002 39018 ft 475 kts 99°
2026-04-23 15:37 42.98162 22.74773 39009 ft 475 kts 100°
2026-04-23 15:37 42.97194 22.82119 39003 ft 470 kts 92°
2026-04-23 15:38 42.96471 22.92446 38998 ft 470 kts 91°
2026-04-23 15:38 42.95936 23.01356 38991 ft 470 kts 91°
2026-04-23 15:39 42.95400 23.10206 38991 ft 470 kts 91°
2026-04-23 15:39 42.94842 23.19107 38990 ft 470 kts 91°
2026-04-23 15:40 42.94271 23.27995 38989 ft 470 kts 91°
2026-04-23 15:40 42.93696 23.36829 38986 ft 470 kts 91°
2026-04-23 15:41 42.93111 23.45736 38984 ft 472 kts 92°
2026-04-23 15:41 42.92517 23.54674 38980 ft 473 kts 92°
2026-04-23 15:42 42.91914 23.63629 38982 ft 473 kts 92°
2026-04-23 15:42 42.91303 23.72586 38980 ft 474 kts 92°
2026-04-23 15:43 42.90688 23.81537 38980 ft 474 kts 92°
2026-04-23 15:43 42.90063 23.90505 38976 ft 475 kts 92°
2026-04-23 15:44 42.89431 23.99480 38977 ft 475 kts 92°
2026-04-23 15:44 42.88900 24.06933 38976 ft 475 kts 92°
2026-04-23 15:45 42.88148 24.17359 38981 ft 475 kts 92°
2026-04-23 15:45 42.87601 24.24874 38970 ft 475 kts 92°
2026-04-23 15:46 42.86942 24.33847 38977 ft 475 kts 92°
2026-04-23 15:46 42.86279 24.42761 38965 ft 475 kts 92°
2026-04-23 15:47 42.85606 24.51725 38968 ft 476 kts 93°
2026-04-23 15:47 42.84924 24.60704 38964 ft 477 kts 93°
2026-04-23 15:48 42.84232 24.69719 38965 ft 477 kts 93°
2026-04-23 15:48 42.83535 24.78704 38966 ft 477 kts 93°
2026-04-23 15:49 42.82834 24.87657 38963 ft 477 kts 93°
2026-04-23 15:49 42.82123 24.96660 38945 ft 478 kts 93°
2026-04-23 15:50 42.81403 25.05664 38950 ft 478 kts 93°
2026-04-23 15:50 42.80680 25.14625 38946 ft 478 kts 93°
2026-04-23 15:51 42.79945 25.23638 38951 ft 478 kts 93°
2026-04-23 15:51 42.79204 25.32641 38947 ft 478 kts 94°
2026-04-23 15:52 42.78456 25.41645 38945 ft 478 kts 94°
2026-04-23 15:52 42.77701 25.50640 38948 ft 478 kts 94°
2026-04-23 15:53 42.76939 25.59630 38943 ft 478 kts 94°
2026-04-23 15:53 42.76174 25.68584 38939 ft 480 kts 94°
2026-04-23 15:54 42.75394 25.77620 38940 ft 480 kts 94°
2026-04-23 15:54 42.74607 25.86649 38944 ft 480 kts 94°
2026-04-23 15:55 42.73812 25.95674 38933 ft 480 kts 94°
2026-04-23 15:55 42.73015 26.04659 38933 ft 482 kts 94°
2026-04-23 15:56 42.72204 26.13717 38936 ft 482 kts 94°
2026-04-23 15:56 42.71384 26.22787 38926 ft 482 kts 94°
2026-04-23 15:57 42.70559 26.31837 38930 ft 482 kts 95°
2026-04-23 15:57 42.69725 26.40908 38933 ft 484 kts 95°
2026-04-23 15:58 42.68886 26.49941 38930 ft 484 kts 95°
2026-04-23 15:58 42.68036 26.59025 38926 ft 484 kts 95°
2026-04-23 15:59 42.67178 26.68103 38927 ft 485 kts 95°
2026-04-23 15:59 42.66310 26.77220 38921 ft 487 kts 95°
2026-04-23 16:00 42.65430 26.86375 38923 ft 488 kts 95°
2026-04-23 16:00 42.64552 26.95440 38925 ft 487 kts 95°
2026-04-23 16:01 42.63659 27.04572 38927 ft 488 kts 96°
2026-04-23 16:01 42.62756 27.13746 38921 ft 491 kts 96°
2026-04-23 16:02 42.61842 27.22941 38925 ft 491 kts 95°
2026-04-23 16:02 42.60921 27.32126 38925 ft 490 kts 96°
2026-04-23 16:03 42.60000 27.41247 38927 ft 491 kts 96°
2026-04-23 16:03 42.59062 27.50462 38922 ft 492 kts 96°
2026-04-23 16:04 42.58127 27.59687 38922 ft 493 kts 96°
2026-04-23 16:04 42.57222 27.68914 38924 ft 493 kts 96°
2026-04-23 16:05 42.56469 27.76572 38932 ft 493 kts 96°
2026-04-23 16:05 42.55397 27.87328 38930 ft 495 kts 96°
2026-04-23 16:06 42.54461 27.96601 38932 ft 496 kts 96°
2026-04-23 16:06 42.53517 28.05860 38932 ft 496 kts 96°
2026-04-23 16:07 42.52565 28.15127 38937 ft 497 kts 96°
2026-04-23 16:07 42.51607 28.24380 38936 ft 499 kts 96°
2026-04-23 16:08 42.50634 28.33701 38937 ft 499 kts 96°
2026-04-23 16:08 42.49654 28.43013 38933 ft 499 kts 96°
2026-04-23 16:09 42.48665 28.52331 38936 ft 500 kts 97°
2026-04-23 16:09 42.47666 28.61675 38937 ft 501 kts 97°
2026-04-23 16:10 42.46659 28.71018 38934 ft 501 kts 97°
2026-04-23 16:10 42.45651 28.80305 38938 ft 501 kts 97°
2026-04-23 16:11 42.44628 28.89652 38937 ft 501 kts 97°
2026-04-23 16:11 42.43595 28.99011 38932 ft 501 kts 97°
2026-04-23 16:12 42.42558 29.08344 38923 ft 501 kts 97°
2026-04-23 16:12 42.41519 29.17622 38926 ft 502 kts 97°
2026-04-23 16:13 42.40463 29.26987 38941 ft 504 kts 98°
2026-04-23 16:13 42.38857 29.41081 38924 ft 505 kts 98°
2026-04-23 16:14 42.37779 29.50455 38942 ft 505 kts 98°
2026-04-23 16:14 42.36680 29.59792 38931 ft 506 kts 100°
2026-04-23 16:15 42.34749 29.68968 38935 ft 508 kts 107°
2026-04-23 16:15 42.32483 29.78039 38939 ft 509 kts 108°
2026-04-23 16:16 42.30157 29.87078 38947 ft 509 kts 109°
2026-04-23 16:16 42.27827 29.96132 38945 ft 510 kts 109°
2026-04-23 16:17 42.25514 30.05135 38951 ft 510 kts 109°
2026-04-23 16:17 42.23183 30.14201 38950 ft 510 kts 109°
2026-04-23 16:18 42.20862 30.23189 38952 ft 511 kts 109°
2026-04-23 16:18 42.18513 30.32251 38954 ft 512 kts 109°
2026-04-23 16:19 42.16150 30.41329 38957 ft 512 kts 109°
2026-04-23 16:19 42.13801 30.50322 38955 ft 513 kts 110°
2026-04-23 16:20 42.11414 30.59427 38958 ft 515 kts 110°
2026-04-23 16:20 42.09018 30.68529 38958 ft 515 kts 110°
2026-04-23 16:21 42.06615 30.77626 38959 ft 515 kts 110°
2026-04-23 16:21 42.04202 30.86725 38961 ft 517 kts 110°
2026-04-23 16:22 42.01790 30.95788 38961 ft 518 kts 110°
2026-04-23 16:22 41.99351 31.04922 38961 ft 518 kts 110°
2026-04-23 16:23 41.96914 31.14038 38960 ft 519 kts 111°
2026-04-23 16:23 41.94457 31.23188 38967 ft 520 kts 111°
2026-04-23 16:24 41.92011 31.32262 38969 ft 520 kts 111°
2026-04-23 16:24 41.89541 31.41396 38967 ft 521 kts 111°
2026-04-23 16:25 41.87057 31.50547 38970 ft 522 kts 111°
2026-04-23 16:25 41.84577 31.59650 38971 ft 522 kts 111°
2026-04-23 16:26 41.82077 31.68793 38966 ft 522 kts 111°
2026-04-23 16:26 41.79553 31.77965 38970 ft 523 kts 111°
2026-04-23 16:27 41.77023 31.87111 38972 ft 523 kts 111°
2026-04-23 16:27 41.74500 31.96204 38975 ft 523 kts 112°
2026-04-23 16:28 41.71958 32.05335 38974 ft 523 kts 112°
2026-04-23 16:28 41.69402 32.14492 38977 ft 523 kts 112°
2026-04-23 16:29 41.66865 32.23569 38985 ft 523 kts 112°
2026-04-23 16:29 41.64312 32.32704 38977 ft 525 kts 112°
2026-04-23 16:30 41.61516 32.41721 38989 ft 525 kts 116°
2026-04-23 16:30 41.58393 32.50550 39124 ft 525 kts 118°
2026-04-23 16:31 41.56798 32.54939 39264 ft 524 kts 118°
2026-04-23 16:31 41.55199 32.59320 39383 ft 524 kts 118°
2026-04-23 16:31 41.53601 32.63699 39502 ft 525 kts 118°
2026-04-23 16:31 41.52024 32.68028 39646 ft 524 kts 118°
2026-04-23 16:32 41.50431 32.72407 39782 ft 524 kts 118°
2026-04-23 16:32 41.48841 32.76779 39910 ft 524 kts 118°
2026-04-23 16:32 41.45654 32.85526 40126 ft 524 kts 118°
2026-04-23 16:33 41.44060 32.89892 40235 ft 523 kts 118°
2026-04-23 16:33 41.42463 32.94261 40358 ft 523 kts 118°
2026-04-23 16:33 41.40868 32.98616 40473 ft 523 kts 118°
2026-04-23 16:33 41.39292 33.02914 40569 ft 523 kts 118°
2026-04-23 16:34 41.37691 33.07270 40673 ft 523 kts 118°
2026-04-23 16:34 41.36089 33.11625 40732 ft 524 kts 118°
2026-04-23 16:34 41.32869 33.20356 40829 ft 526 kts 118°
2026-04-23 16:35 41.31256 33.24719 40932 ft 525 kts 118°
2026-04-23 16:35 41.29641 33.29084 40954 ft 525 kts 118°
2026-04-23 16:35 41.26428 33.37743 40946 ft 525 kts 118°
2026-04-23 16:36 41.23190 33.46447 40953 ft 526 kts 119°
2026-04-23 16:36 41.20467 33.53742 40945 ft 526 kts 119°
2026-04-23 16:37 41.17228 33.62398 40931 ft 526 kts 119°
2026-04-23 16:37 41.13967 33.71090 40930 ft 526 kts 119°
2026-04-23 16:38 41.10693 33.79785 40907 ft 526 kts 119°
2026-04-23 16:38 41.07428 33.88430 40904 ft 527 kts 119°
2026-04-23 16:39 41.04141 33.97121 40920 ft 526 kts 120°
2026-04-23 16:39 41.00850 34.05783 40904 ft 526 kts 120°
2026-04-23 16:40 40.97555 34.14428 40904 ft 526 kts 120°
2026-04-23 16:40 40.94279 34.23002 40911 ft 525 kts 120°
2026-04-23 16:41 40.90982 34.31606 40913 ft 524 kts 120°
2026-04-23 16:41 40.87679 34.40202 40911 ft 524 kts 120°
2026-04-23 16:42 40.84370 34.48786 40904 ft 523 kts 120°
2026-04-23 16:42 40.81064 34.57338 40905 ft 523 kts 120°
2026-04-23 16:43 40.77749 34.65887 40909 ft 523 kts 120°
2026-04-23 16:43 40.74653 34.74515 40906 ft 526 kts 112°
2026-04-23 16:44 40.72421 34.83719 40906 ft 527 kts 109°
2026-04-23 16:44 40.70368 34.93014 40907 ft 528 kts 109°
2026-04-23 16:45 40.68331 35.02324 40905 ft 528 kts 109°
2026-04-23 16:45 40.66283 35.11563 40912 ft 529 kts 109°
2026-04-23 16:46 40.64202 35.20856 40908 ft 529 kts 109°
2026-04-23 16:46 40.62107 35.30155 40904 ft 529 kts 109°
2026-04-23 16:47 40.60007 35.39443 40920 ft 529 kts 109°
2026-04-23 16:47 40.57912 35.48666 40922 ft 529 kts 109°
2026-04-23 16:48 40.55800 35.57932 40921 ft 529 kts 110°
2026-04-23 16:48 40.53680 35.67197 40931 ft 528 kts 110°
2026-04-23 16:49 40.51555 35.76441 40937 ft 528 kts 110°
2026-04-23 16:49 40.49422 35.85681 40959 ft 528 kts 110°
2026-04-23 16:50 40.47281 35.94917 40968 ft 529 kts 110°
2026-04-23 16:50 40.45140 36.04117 40962 ft 530 kts 110°
2026-04-23 16:51 40.42980 36.13364 40964 ft 529 kts 110°
2026-04-23 16:51 40.40815 36.22596 40944 ft 530 kts 110°
2026-04-23 16:52 40.38633 36.31856 40936 ft 531 kts 110°
2026-04-23 16:52 40.36442 36.41124 40939 ft 531 kts 110°
2026-04-23 16:53 40.34246 36.50375 40930 ft 531 kts 110°
2026-04-23 16:53 40.32053 36.59572 40988 ft 532 kts 110°
2026-04-23 16:54 40.29841 36.68819 40988 ft 531 kts 110°
2026-04-23 16:54 40.27619 36.78067 40984 ft 531 kts 110°
2026-04-23 16:55 40.25403 36.87254 40978 ft 532 kts 111°
2026-04-23 16:55 40.23160 36.96512 40981 ft 532 kts 111°
2026-04-23 16:56 40.20913 37.05756 40965 ft 532 kts 111°
2026-04-23 16:56 40.18672 37.14934 40954 ft 534 kts 111°
2026-04-23 16:57 40.16404 37.24186 40957 ft 534 kts 111°
2026-04-23 16:57 40.14131 37.33427 40948 ft 534 kts 111°
2026-04-23 16:58 40.11843 37.42691 40929 ft 534 kts 111°
2026-04-23 16:58 40.09566 37.51879 40915 ft 535 kts 111°
2026-04-23 16:59 40.07234 37.61119 40904 ft 534 kts 113°
2026-04-23 16:59 40.04598 37.70183 40906 ft 533 kts 115°
2026-04-23 17:00 40.01878 37.79182 40895 ft 533 kts 115°
2026-04-23 17:00 39.99187 37.88205 40896 ft 533 kts 115°
2026-04-23 17:01 39.96535 37.97190 40872 ft 533 kts 115°
2026-04-23 17:01 39.93875 38.06206 40858 ft 533 kts 115°
2026-04-23 17:02 39.91211 38.15205 40859 ft 532 kts 115°
2026-04-23 17:02 39.88538 38.24195 40854 ft 532 kts 115°
2026-04-23 17:03 39.85852 38.33193 40845 ft 533 kts 115°
2026-04-23 17:03 39.83156 38.42195 40840 ft 534 kts 115°
2026-04-23 17:04 39.80452 38.51197 40824 ft 534 kts 115°
2026-04-23 17:04 39.77760 38.60129 40832 ft 534 kts 115°
2026-04-23 17:05 39.75038 38.69130 40825 ft 534 kts 115°
2026-04-23 17:05 39.72312 38.78114 40816 ft 533 kts 115°
2026-04-23 17:06 39.69591 38.87055 40833 ft 531 kts 115°
2026-04-23 17:06 39.66872 38.95959 40839 ft 531 kts 116°
2026-04-23 17:07 39.64159 39.04805 40832 ft 530 kts 116°
2026-04-23 17:07 39.61418 39.13719 40842 ft 531 kts 116°
2026-04-23 17:08 39.58669 39.22625 40859 ft 531 kts 116°
2026-04-23 17:08 39.55921 39.31501 40840 ft 530 kts 115°
2026-04-23 17:09 39.53171 39.40368 40838 ft 530 kts 116°
2026-04-23 17:09 39.50429 39.49222 40844 ft 531 kts 114°
2026-04-23 17:10 39.48039 39.58293 40831 ft 532 kts 111°
2026-04-23 17:10 39.45812 39.67379 40870 ft 531 kts 111°
2026-04-23 17:11 39.43530 39.76472 40885 ft 530 kts 111°
2026-04-23 17:11 39.41199 39.85522 40897 ft 530 kts 112°
2026-04-23 17:12 39.38845 39.94552 40902 ft 529 kts 112°
2026-04-23 17:12 39.36486 40.03572 40917 ft 529 kts 112°
2026-04-23 17:13 39.34138 40.12522 40912 ft 529 kts 112°
2026-04-23 17:13 39.31035 40.21019 40921 ft 518 kts 129°
2026-04-23 17:14 39.26840 40.28567 40937 ft 515 kts 132°
2026-04-23 17:14 39.22467 40.35907 40937 ft 516 kts 133°
2026-04-23 17:15 39.18094 40.43188 40954 ft 516 kts 133°
2026-04-23 17:15 39.13708 40.50531 40952 ft 516 kts 133°
2026-04-23 17:16 39.09330 40.57876 40958 ft 516 kts 133°
2026-04-23 17:16 39.04970 40.65179 40968 ft 517 kts 133°
2026-04-23 17:17 39.00572 40.72526 40971 ft 518 kts 133°
2026-04-23 17:17 38.96168 40.79866 40967 ft 518 kts 133°
2026-04-23 17:18 38.89587 40.90805 40968 ft 517 kts 133°
2026-04-23 17:19 38.85174 40.98117 40961 ft 518 kts 133°
2026-04-23 17:19 38.80760 41.05415 40971 ft 517 kts 133°
2026-04-23 17:20 38.76342 41.12702 40970 ft 517 kts 133°
2026-04-23 17:21 38.67555 41.27150 40967 ft 515 kts 133°
2026-04-23 17:21 38.60928 41.38004 40971 ft 515 kts 133°
2026-04-23 17:22 38.54462 41.48916 40971 ft 516 kts 131°
2026-04-23 17:23 38.48120 41.60051 40980 ft 516 kts 131°
2026-04-23 17:24 38.41720 41.71136 40984 ft 516 kts 132°
2026-04-23 17:24 38.35307 41.82169 40992 ft 516 kts 132°
2026-04-23 17:25 38.28908 41.93156 41000 ft 517 kts 132°
2026-04-23 17:26 38.21034 42.06612 41008 ft 517 kts 132°
2026-04-23 17:27 38.14589 42.17588 41018 ft 517 kts 132°
2026-04-23 17:27 38.10280 42.24914 41030 ft 517 kts 132°
2026-04-23 17:28 38.05964 42.32232 41028 ft 517 kts 132°
2026-04-23 17:28 38.01667 42.39493 41037 ft 517 kts 133°
2026-04-23 17:29 37.97341 42.46789 41040 ft 517 kts 133°
2026-04-23 17:30 37.90846 42.57720 41049 ft 518 kts 133°
2026-04-23 17:30 37.84584 42.68844 41069 ft 522 kts 127°
2026-04-23 17:31 37.80781 42.76685 41072 ft 522 kts 127°
2026-04-23 17:31 37.77025 42.84553 41081 ft 522 kts 126°
2026-04-23 17:32 37.73277 42.92420 41067 ft 522 kts 126°
2026-04-23 17:32 37.69513 43.00277 41075 ft 522 kts 126°
2026-04-23 17:33 37.65760 43.08071 41078 ft 523 kts 126°
2026-04-23 17:33 37.61977 43.15904 41097 ft 522 kts 127°
2026-04-23 17:34 37.58190 43.23727 41105 ft 522 kts 127°
2026-04-23 17:35 37.52506 43.35446 41083 ft 522 kts 127°
2026-04-23 17:35 37.46798 43.47154 41101 ft 524 kts 127°
2026-04-23 17:36 37.42982 43.54968 41072 ft 523 kts 127°
2026-04-23 17:36 37.39159 43.62775 41085 ft 524 kts 127°
2026-04-23 17:37 37.35343 43.70550 41086 ft 525 kts 127°
2026-04-23 17:38 37.29587 43.82246 41080 ft 525 kts 127°
2026-04-23 17:38 37.25403 43.89678 41073 ft 514 kts 139°
2026-04-23 17:39 37.19944 43.95078 41070 ft 493 kts 159°
2026-04-23 17:39 37.13718 43.98436 41064 ft 485 kts 167°
2026-04-23 17:40 37.07370 44.01345 41060 ft 485 kts 168°
2026-04-23 17:40 37.01010 44.04218 41049 ft 486 kts 167°
2026-04-23 17:41 36.94654 44.07137 41040 ft 486 kts 167°
2026-04-23 17:41 36.85171 44.11529 41032 ft 486 kts 167°
2026-04-23 17:42 36.75652 44.15935 41024 ft 486 kts 167°
2026-04-23 17:43 36.69286 44.18872 41028 ft 487 kts 167°
2026-04-23 17:43 36.62925 44.21795 41027 ft 487 kts 167°
2026-04-23 17:44 36.56605 44.24694 41011 ft 486 kts 167°
2026-04-23 17:44 36.47071 44.29061 41025 ft 486 kts 167°
2026-04-23 17:45 36.37528 44.33422 41024 ft 486 kts 167°
2026-04-23 17:46 36.28008 44.37761 41022 ft 488 kts 167°
2026-04-23 17:46 36.21641 44.40657 41018 ft 487 kts 167°
2026-04-23 17:47 36.15263 44.43551 41019 ft 487 kts 167°
2026-04-23 17:48 36.05696 44.47886 41006 ft 488 kts 168°
2026-04-23 17:48 35.99356 44.50751 41004 ft 488 kts 167°
2026-04-23 17:49 35.92969 44.53634 41001 ft 488 kts 168°
2026-04-23 17:49 35.86578 44.56513 41003 ft 489 kts 168°
2026-04-23 17:50 35.80187 44.59386 40982 ft 488 kts 167°
2026-04-23 17:50 35.70638 44.63672 41002 ft 489 kts 168°
2026-04-23 17:51 35.64238 44.66537 40991 ft 488 kts 168°
2026-04-23 17:52 35.54640 44.70825 41008 ft 489 kts 168°
2026-04-23 17:52 35.45080 44.75087 40990 ft 489 kts 168°
2026-04-23 17:53 35.35484 44.79352 40978 ft 488 kts 168°
2026-04-23 17:54 35.29101 44.82184 40993 ft 488 kts 168°
2026-04-23 17:54 35.19540 44.86417 40999 ft 488 kts 168°
2026-04-23 17:55 35.09965 44.90644 40996 ft 488 kts 168°
2026-04-23 17:56 35.03577 44.93459 40991 ft 488 kts 168°
2026-04-23 17:56 34.94476 44.97461 40984 ft 487 kts 168°
2026-04-23 17:57 34.88134 45.00245 40968 ft 487 kts 168°
2026-04-23 17:58 34.78542 45.04446 40978 ft 487 kts 168°
2026-04-23 17:58 34.72192 45.07221 40965 ft 487 kts 168°
2026-04-23 17:59 34.65801 45.10011 40974 ft 487 kts 168°
2026-04-23 17:59 34.59406 45.12797 40944 ft 487 kts 168°
2026-04-23 18:00 34.54094 45.15107 40962 ft 487 kts 168°
2026-04-23 18:00 34.49819 45.16565 40967 ft 476 kts 177°
2026-04-23 18:00 34.46560 45.17083 40961 ft 470 kts 182°
2026-04-23 18:01 34.40051 45.17656 40963 ft 467 kts 184°
2026-04-23 18:01 34.33552 45.18063 40959 ft 467 kts 185°
2026-04-23 18:02 34.28149 45.18397 40954 ft 467 kts 185°
2026-04-23 18:02 34.20595 45.18895 40955 ft 467 kts 184°
2026-04-23 18:03 34.14103 45.19337 40954 ft 467 kts 184°
2026-04-23 18:03 34.07646 45.19777 40948 ft 467 kts 184°
2026-04-23 18:04 34.01150 45.20219 40947 ft 467 kts 185°
2026-04-23 18:04 33.94664 45.20658 40943 ft 466 kts 185°
2026-04-23 18:05 33.88183 45.21096 40934 ft 466 kts 185°
2026-04-23 18:05 33.81741 45.21531 40950 ft 466 kts 185°
2026-04-23 18:06 33.75262 45.21967 40950 ft 466 kts 185°
2026-04-23 18:06 33.68775 45.22404 40951 ft 466 kts 185°
2026-04-23 18:07 33.62295 45.22839 40950 ft 466 kts 185°
2026-04-23 18:07 33.55821 45.23274 40957 ft 466 kts 185°
2026-04-23 18:08 33.50429 45.23635 40942 ft 466 kts 185°
2026-04-23 18:08 33.42894 45.24139 40951 ft 466 kts 185°
2026-04-23 18:09 33.36412 45.24598 40956 ft 468 kts 182°
2026-04-23 18:09 33.29956 45.26367 40958 ft 487 kts 166°
2026-04-23 18:09 33.26874 45.28174 40958 ft 499 kts 156°
2026-04-23 18:10 33.23990 45.30540 40952 ft 505 kts 151°
2026-04-23 18:10 33.18419 45.35730 40943 ft 509 kts 149°
2026-04-23 18:11 33.12927 45.41028 40954 ft 510 kts 149°
2026-04-23 18:11 33.07378 45.46319 40955 ft 510 kts 149°
2026-04-23 18:12 33.01809 45.51564 40941 ft 510 kts 150°
2026-04-23 18:12 32.96226 45.56794 40949 ft 510 kts 150°
2026-04-23 18:13 32.90643 45.62017 40947 ft 511 kts 150°
2026-04-23 18:13 32.85990 45.66363 40949 ft 511 kts 150°
2026-04-23 18:14 32.80393 45.71592 40945 ft 511 kts 150°
2026-04-23 18:14 32.74796 45.76814 40947 ft 512 kts 150°
2026-04-23 18:15 32.69183 45.82040 40946 ft 512 kts 150°
2026-04-23 18:15 32.63607 45.87224 40951 ft 513 kts 150°
2026-04-23 18:16 32.57980 45.92447 40945 ft 513 kts 150°
2026-04-23 18:16 32.52348 45.97667 40945 ft 513 kts 150°
2026-04-23 18:17 32.43909 46.05473 40944 ft 513 kts 150°
2026-04-23 18:17 32.38273 46.10676 40944 ft 513 kts 150°
2026-04-23 18:18 32.32673 46.15837 40950 ft 513 kts 151°
2026-04-23 18:18 32.27025 46.21032 40940 ft 514 kts 150°
2026-04-23 18:19 32.21375 46.26223 40945 ft 514 kts 150°
2026-04-23 18:19 32.15730 46.31400 40936 ft 514 kts 151°
2026-04-23 18:20 32.10080 46.36573 40916 ft 513 kts 151°
2026-04-23 18:20 32.04462 46.41708 40938 ft 514 kts 151°
2026-04-23 18:21 31.98798 46.46877 40937 ft 514 kts 151°
2026-04-23 18:21 31.93138 46.52036 40929 ft 514 kts 151°
2026-04-23 18:22 31.87513 46.57153 40943 ft 514 kts 151°
2026-04-23 18:22 31.81848 46.62298 40938 ft 514 kts 151°
2026-04-23 18:23 31.73342 46.70010 40936 ft 514 kts 152°
2026-04-23 18:24 31.64857 46.77683 40932 ft 514 kts 152°
2026-04-23 18:25 31.56333 46.85373 40931 ft 515 kts 152°
2026-04-23 18:25 31.50633 46.90505 40912 ft 515 kts 152°
2026-04-23 18:26 31.44975 46.95592 40928 ft 516 kts 152°
2026-04-23 18:26 31.39273 47.00710 40927 ft 516 kts 152°
2026-04-23 18:27 31.33567 47.05824 40934 ft 516 kts 152°
2026-04-23 18:27 31.27860 47.10931 40927 ft 516 kts 152°
2026-04-23 18:28 31.22150 47.16032 40888 ft 516 kts 152°
2026-04-23 18:28 31.16435 47.21129 40926 ft 517 kts 152°
2026-04-23 18:29 31.10744 47.26198 40927 ft 517 kts 152°
2026-04-23 18:29 31.05015 47.31293 40918 ft 517 kts 152°
2026-04-23 18:30 30.99286 47.36379 40927 ft 518 kts 152°
2026-04-23 18:30 30.93552 47.41463 40927 ft 518 kts 152°
2026-04-23 18:31 30.87804 47.46550 40921 ft 518 kts 153°
2026-04-23 18:31 30.82064 47.51669 40923 ft 521 kts 150°
2026-04-23 18:32 30.76630 47.57272 40926 ft 527 kts 146°
2026-04-23 18:32 30.71262 47.63095 40933 ft 527 kts 146°
2026-04-23 18:33 30.65850 47.68858 40937 ft 526 kts 147°
2026-04-23 18:33 30.60406 47.74549 40930 ft 526 kts 148°
2026-04-23 18:34 30.54948 47.80214 40936 ft 526 kts 148°
2026-04-23 18:34 30.49491 47.85868 40916 ft 526 kts 148°
2026-04-23 18:35 30.44028 47.91526 40917 ft 527 kts 148°
2026-04-23 18:35 30.38560 47.97182 40920 ft 526 kts 148°
2026-04-23 18:36 30.33118 48.02803 40915 ft 527 kts 148°
2026-04-23 18:36 30.27646 48.08445 40916 ft 527 kts 148°
2026-04-23 18:37 30.22164 48.14089 40925 ft 527 kts 148°
2026-04-23 18:37 30.16675 48.19733 40904 ft 527 kts 148°
2026-04-23 18:38 30.11186 48.25366 40928 ft 528 kts 148°
2026-04-23 18:38 30.05719 48.30967 40929 ft 528 kts 148°
2026-04-23 18:39 30.00218 48.36597 40921 ft 528 kts 148°
2026-04-23 18:39 29.94710 48.42224 40942 ft 529 kts 148°
2026-04-23 18:40 29.89173 48.47799 40937 ft 524 kts 152°
2026-04-23 18:40 29.86207 48.50138 40916 ft 511 kts 161°
2026-04-23 18:40 29.83116 48.52125 40933 ft 508 kts 162°
2026-04-23 18:41 29.76843 48.55840 40947 ft 506 kts 164°
2026-04-23 18:41 29.70529 48.59447 40950 ft 506 kts 164°
2026-04-23 18:42 29.64259 48.63037 40946 ft 507 kts 164°
2026-04-23 18:42 29.57929 48.66680 40947 ft 508 kts 164°
2026-04-23 18:43 29.51608 48.70327 40956 ft 508 kts 164°
2026-04-23 18:43 29.45276 48.73975 40950 ft 509 kts 164°
2026-04-23 18:44 29.38936 48.77626 40952 ft 510 kts 164°
2026-04-23 18:44 29.32593 48.81280 40931 ft 510 kts 164°
2026-04-23 18:45 29.26261 48.84921 40957 ft 509 kts 164°
2026-04-23 18:45 29.19963 48.88538 40954 ft 509 kts 164°
2026-04-23 18:46 29.13793 48.92713 40964 ft 526 kts 151°
2026-04-23 18:46 29.08075 48.98015 40960 ft 531 kts 149°
2026-04-23 18:47 29.02454 49.03533 40953 ft 532 kts 148°
2026-04-23 18:47 28.96886 49.09017 40953 ft 531 kts 149°
2026-04-23 18:48 28.91273 49.14498 40952 ft 530 kts 149°
2026-04-23 18:48 28.85668 49.19962 40952 ft 531 kts 148°
2026-04-23 18:49 28.80152 49.25600 40952 ft 532 kts 147°
2026-04-23 18:49 28.74675 49.31282 40959 ft 532 kts 147°
2026-04-23 18:50 28.70112 49.35985 40955 ft 532 kts 147°
2026-04-23 18:50 28.63712 49.42542 40950 ft 533 kts 147°
2026-04-23 18:50 28.61111 49.45617 40951 ft 544 kts 138°
2026-04-23 18:51 28.58863 49.49134 40954 ft 552 kts 131°
2026-04-23 18:51 28.54754 49.56554 40949 ft 556 kts 128°
2026-04-23 18:52 28.50807 49.64063 40932 ft 557 kts 128°
2026-04-23 18:52 28.46799 49.71670 40950 ft 557 kts 128°
2026-04-23 18:53 28.42647 49.78981 40950 ft 547 kts 137°
2026-04-23 18:53 28.40079 49.82094 40948 ft 532 kts 148°
2026-04-23 18:53 28.37208 49.84681 40921 ft 523 kts 154°
2026-04-23 18:54 28.31244 49.89375 40945 ft 520 kts 156°
2026-04-23 18:54 28.25199 49.93894 40944 ft 519 kts 157°
2026-04-23 18:55 28.19165 49.98412 40916 ft 520 kts 156°
2026-04-23 18:55 28.13176 50.02933 40942 ft 520 kts 156°
2026-04-23 18:56 28.08130 50.06753 40938 ft 520 kts 156°
2026-04-23 18:56 28.01132 50.12048 40924 ft 520 kts 156°
2026-04-23 18:57 27.95104 50.16599 40935 ft 521 kts 156°
2026-04-23 18:57 27.89098 50.21127 40937 ft 521 kts 156°
2026-04-23 18:58 27.83063 50.25670 40913 ft 521 kts 156°
2026-04-23 18:58 27.77022 50.30211 40933 ft 521 kts 156°
2026-04-23 18:59 27.70980 50.34748 40930 ft 522 kts 156°
2026-04-23 18:59 27.64937 50.39279 40905 ft 522 kts 156°
2026-04-23 19:00 27.58901 50.43828 40931 ft 522 kts 155°
2026-04-23 19:00 27.52888 50.48448 40927 ft 523 kts 155°
2026-04-23 19:01 27.47894 50.52291 40924 ft 523 kts 155°
2026-04-23 19:01 27.40896 50.57660 40922 ft 523 kts 155°
2026-04-23 19:02 27.35853 50.61513 40922 ft 523 kts 155°
2026-04-23 19:02 27.29862 50.66078 40921 ft 523 kts 155°
2026-04-23 19:03 27.23829 50.70670 40918 ft 524 kts 155°
2026-04-23 19:03 27.17784 50.75269 40917 ft 524 kts 155°
2026-04-23 19:04 27.12119 50.80603 40907 ft 537 kts 144°
2026-04-23 19:04 27.06784 50.86525 40915 ft 540 kts 142°
2026-04-23 19:05 27.01559 50.92552 40903 ft 545 kts 138°
2026-04-23 19:05 26.97103 50.99548 40919 ft 554 kts 128°
2026-04-23 19:06 26.93006 51.06887 40892 ft 555 kts 127°
2026-04-23 19:06 26.88966 51.14279 40907 ft 557 kts 126°
2026-04-23 19:07 26.85813 51.22288 40911 ft 564 kts 113°
2026-04-23 19:07 26.83260 51.30575 40915 ft 566 kts 111°
2026-04-23 19:08 26.80793 51.38948 40904 ft 567 kts 111°
2026-04-23 19:08 26.78310 51.47322 40914 ft 566 kts 112°
2026-04-23 19:09 26.75804 51.55670 40916 ft 565 kts 112°
2026-04-23 19:09 26.73289 51.63997 40914 ft 565 kts 112°
2026-04-23 19:10 26.70789 51.72321 40913 ft 565 kts 111°
2026-04-23 19:10 26.68298 51.80661 40910 ft 564 kts 111°
2026-04-23 19:11 26.65798 51.88971 40909 ft 563 kts 111°
2026-04-23 19:11 26.63233 51.97221 40907 ft 562 kts 113°
2026-04-23 19:12 26.60528 52.05406 40908 ft 562 kts 114°
2026-04-23 19:12 26.57829 52.13548 40903 ft 562 kts 113°
2026-04-23 19:13 26.55136 52.21739 40895 ft 561 kts 113°
2026-04-23 19:13 26.52456 52.29916 40889 ft 560 kts 113°
2026-04-23 19:14 26.50238 52.36675 40890 ft 560 kts 113°
2026-04-23 19:14 26.47550 52.44846 40882 ft 560 kts 113°
2026-04-23 19:15 26.44876 52.52953 40884 ft 560 kts 113°
2026-04-23 19:15 26.42183 52.61101 40878 ft 558 kts 113°
2026-04-23 19:16 26.39492 52.69241 40874 ft 557 kts 113°
2026-04-23 19:16 26.36799 52.77351 40873 ft 557 kts 113°
2026-04-23 19:17 26.32750 52.89516 40865 ft 558 kts 113°
2026-04-23 19:17 26.30058 52.97560 40860 ft 557 kts 113°
2026-04-23 19:18 26.27349 53.05644 40864 ft 556 kts 113°
2026-04-23 19:18 26.24637 53.13726 40856 ft 556 kts 113°
2026-04-23 19:19 26.21926 53.21788 40282 ft 554 kts 113°
2026-04-23 19:19 26.20565 53.25832 39488 ft 558 kts 113°
2026-04-23 19:20 26.17838 53.33911 38004 ft 561 kts 113°
2026-04-23 19:20 26.16371 53.37921 37318 ft 557 kts 116°
2026-04-23 19:20 26.14784 53.41843 36622 ft 555 kts 117°
2026-04-23 19:20 26.13146 53.45731 35929 ft 552 kts 118°
2026-04-23 19:21 26.11508 53.49592 35220 ft 551 kts 117°
2026-04-23 19:21 26.08284 53.57301 33839 ft 546 kts 117°
2026-04-23 19:21 26.06703 53.61139 33009 ft 545 kts 116°
2026-04-23 19:22 26.05134 53.64971 32128 ft 545 kts 116°
2026-04-23 19:22 26.03587 53.68759 31236 ft 545 kts 116°
2026-04-23 19:22 26.00449 53.76447 29369 ft 546 kts 116°
2026-04-23 19:23 25.98910 53.80298 28433 ft 544 kts 115°
2026-04-23 19:23 25.97408 53.84137 27711 ft 538 kts 115°
2026-04-23 19:23 25.95933 53.87932 27059 ft 532 kts 115°
2026-04-23 19:24 25.93026 53.95396 25747 ft 521 kts 115°
2026-04-23 19:24 25.91588 53.99068 25105 ft 516 kts 115°
2026-04-23 19:24 25.88548 54.06193 23836 ft 505 kts 118°
2026-04-23 19:25 25.85416 54.13080 22496 ft 494 kts 118°
2026-04-23 19:25 25.82414 54.19831 21234 ft 482 kts 114°
2026-04-23 19:26 25.80051 54.26703 20010 ft 471 kts 111°
2026-04-23 19:26 25.78975 54.30129 19383 ft 467 kts 110°
2026-04-23 19:27 25.76898 54.36905 18088 ft 461 kts 110°
2026-04-23 19:27 25.73870 54.46742 16623 ft 433 kts 111°
2026-04-23 19:28 25.71971 54.52847 16170 ft 405 kts 111°
2026-04-23 19:28 25.70178 54.58583 15585 ft 386 kts 111°
2026-04-23 19:29 25.69303 54.61371 15141 ft 381 kts 112°
2026-04-23 19:29 25.67536 54.66857 14251 ft 373 kts 112°
2026-04-23 19:30 25.65809 54.72213 13340 ft 365 kts 112°
2026-04-23 19:30 25.64959 54.74853 12823 ft 362 kts 112°
2026-04-23 19:30 25.63274 54.80080 11772 ft 358 kts 112°
2026-04-23 19:31 25.62441 54.82667 11350 ft 353 kts 112°
2026-04-23 19:31 25.61618 54.85219 10956 ft 348 kts 112°
2026-04-23 19:31 25.60808 54.87690 10497 ft 344 kts 114°
2026-04-23 19:31 25.59877 54.90112 10016 ft 340 kts 117°
2026-04-23 19:32 25.58917 54.92497 9519 ft 337 kts 117°
2026-04-23 19:32 25.57969 54.94868 8959 ft 335 kts 116°
2026-04-23 19:32 25.57035 54.97225 8409 ft 334 kts 116°
2026-04-23 19:32 25.56109 54.99579 8070 ft 332 kts 116°
2026-04-23 19:33 25.55189 55.01926 7977 ft 333 kts 115°
2026-04-23 19:33 25.54179 55.04234 7975 ft 332 kts 120°
2026-04-23 19:33 25.51892 55.08670 7974 ft 331 kts 122°
2026-04-23 19:34 25.50739 55.10880 7972 ft 330 kts 122°
2026-04-23 19:34 25.49637 55.12998 7977 ft 311 kts 122°
2026-04-23 19:34 25.47553 55.17009 7971 ft 296 kts 122°
2026-04-23 19:35 25.46522 55.18986 7968 ft 297 kts 122°
2026-04-23 19:35 25.45482 55.20952 7968 ft 296 kts 122°
2026-04-23 19:35 25.44438 55.22914 7968 ft 295 kts 122°
2026-04-23 19:35 25.43395 55.24868 7969 ft 295 kts 122°
2026-04-23 19:36 25.42346 55.26831 7971 ft 295 kts 122°
2026-04-23 19:36 25.41311 55.28763 7755 ft 296 kts 122°
2026-04-23 19:36 25.40254 55.30716 7350 ft 295 kts 122°
2026-04-23 19:36 25.39196 55.32646 6997 ft 292 kts 122°
2026-04-23 19:37 25.38138 55.34551 6612 ft 290 kts 122°
2026-04-23 19:37 25.37073 55.36440 6216 ft 288 kts 122°
2026-04-23 19:37 25.36005 55.38311 6020 ft 287 kts 122°
2026-04-23 19:37 25.34937 55.40178 5988 ft 288 kts 122°
2026-04-23 19:38 25.33866 55.42047 5992 ft 287 kts 122°
2026-04-23 19:38 25.32795 55.43916 5993 ft 287 kts 122°
2026-04-23 19:38 25.31727 55.45780 5994 ft 287 kts 122°
2026-04-23 19:38 25.30675 55.47618 5992 ft 285 kts 122°
2026-04-23 19:39 25.29637 55.49431 5922 ft 271 kts 122°
2026-04-23 19:39 25.28652 55.51157 5783 ft 260 kts 122°
2026-04-23 19:39 25.27725 55.52823 5649 ft 249 kts 122°
2026-04-23 19:39 25.26837 55.54417 5538 ft 238 kts 122°
2026-04-23 19:40 25.25983 55.55940 5408 ft 227 kts 122°
2026-04-23 19:40 25.25166 55.57395 5258 ft 219 kts 122°
2026-04-23 19:40 25.24365 55.58814 4996 ft 217 kts 122°
2026-04-23 19:40 25.23566 55.60224 4737 ft 215 kts 122°
2026-04-23 19:41 25.22771 55.61617 4461 ft 213 kts 122°
2026-04-23 19:41 25.21976 55.62993 4210 ft 211 kts 122°
2026-04-23 19:41 25.21192 55.64333 3953 ft 210 kts 122°
2026-04-23 19:41 25.20395 55.65681 3659 ft 208 kts 122°
2026-04-23 19:42 25.19601 55.67014 3398 ft 207 kts 122°
2026-04-23 19:42 25.18803 55.68336 3130 ft 206 kts 122°
2026-04-23 19:42 25.17978 55.69620 3002 ft 206 kts 130°
2026-04-23 19:42 25.16753 55.70434 3002 ft 208 kts 163°
2026-04-23 19:43 25.15332 55.70744 2997 ft 209 kts 171°
2026-04-23 19:43 25.13883 55.70948 2997 ft 210 kts 172°
2026-04-23 19:43 25.12434 55.71135 3000 ft 210 kts 172°
2026-04-23 19:43 25.10980 55.71320 2998 ft 210 kts 172°
2026-04-23 19:44 25.09537 55.71132 2999 ft 212 kts 204°
2026-04-23 19:44 25.08461 55.70110 2995 ft 210 kts 243°
2026-04-23 19:44 25.08261 55.68558 3012 ft 207 kts 283°
2026-04-23 19:44 25.08687 55.67055 3027 ft 205 kts 294°
2026-04-23 19:45 25.09252 55.65606 3004 ft 206 kts 296°
2026-04-23 19:45 25.09926 55.64208 2999 ft 207 kts 302°
2026-04-23 19:45 25.10680 55.62862 2998 ft 206 kts 303°
2026-04-23 19:45 25.11440 55.61522 3000 ft 206 kts 303°
2026-04-23 19:46 25.12189 55.60172 2995 ft 206 kts 302°
2026-04-23 19:46 25.12930 55.58813 2996 ft 207 kts 302°
2026-04-23 19:46 25.13658 55.57468 2996 ft 207 kts 302°
2026-04-23 19:46 25.14395 55.56112 2994 ft 202 kts 302°
2026-04-23 19:47 25.14871 55.55237 2993 ft 190 kts 302°
2026-04-23 19:47 25.15729 55.53671 2931 ft 175 kts 303°
2026-04-23 19:47 25.16368 55.52539 2662 ft 173 kts 304°
2026-04-23 19:47 25.16999 55.51408 2415 ft 173 kts 304°
2026-04-23 19:48 25.17616 55.50291 2194 ft 166 kts 305°
2026-04-23 19:48 25.18008 55.49580 2054 ft 161 kts 306°
2026-04-23 19:48 25.18573 55.48555 1852 ft 152 kts 306°
2026-04-23 19:48 25.19109 55.47585 1666 ft 145 kts 308°
2026-04-23 19:49 25.19636 55.46638 1480 ft 144 kts 308°
2026-04-23 19:49 25.20159 55.45698 1298 ft 143 kts 307°
2026-04-23 19:49 25.20679 55.44762 1110 ft 142 kts 304°
2026-04-23 19:49 25.21194 55.43829 933 ft 142 kts 305°
2026-04-23 19:50 25.21696 55.42920 768 ft 140 kts 303°
2026-04-23 19:50 25.22188 55.41994 585 ft 138 kts 302°
2026-04-23 19:50 25.22691 55.41108 407 ft 134 kts 303°
2026-04-23 19:50 25.23176 55.40222 221 ft 134 kts 302°
2026-04-23 19:51 25.23661 55.39346 53 ft 133 kts 302°
2026-04-23 19:51 25.24115 55.38538 32 ft 108 kts 302°
2026-04-23 19:51 25.24457 55.37924 31 ft 78 kts 301°
2026-04-23 19:51 25.24623 55.37625 29 ft 36 kts 302°
2026-04-23 19:52 25.24742 55.37401 29 ft 30 kts 295°
2026-04-23 19:52 25.24782 55.37200 30 ft 18 kts 274°
2026-04-23 19:52 25.24786 55.37090 29 ft 14 kts 271°
2026-04-23 19:52 25.24778 55.36977 28 ft 15 kts 243°
2026-04-23 19:53 25.24705 55.36916 28 ft 11 kts 208°
2026-04-23 19:53 25.24636 55.36871 28 ft 13 kts 213°
2026-04-23 19:53 25.24561 55.36826 27 ft 9 kts 187°
2026-04-23 19:53 25.24524 55.36862 27 ft 8 kts 122°
2026-04-23 19:54 25.24499 55.36908 27 ft 6 kts 122°
2026-04-23 19:54 25.24498 55.36910 27 ft 0 kts 122°